This demonstration page uses our WeatherBlox Daily Observations layout. Learn more.

Left ArrowRight Arrow

44.8408, -93.29828

Hourly Observations for April 21, 2022

Temp ( °F °C ) Dew Point ( °F °C ) Humidity (%) Winds ( mph kmh ) Pressure ( in mb ) Visibility ( mi km ) Precip ( " mm )
12:07 am 00:07 Partly Cloudy 41 5 39 3.9 93 93 WNW 5 7 29.89 1012 10 16 0.00 0.00
12:53 am 00:53 Mostly Cloudy with Mist and Fog 40 4.4 38 3.3 93 93 W 5 7 29.88 1012 6 10 0.00 0.00
1:53 am 01:53 Mostly Cloudy with Mist and Fog 39 3.9 38 3.3 96 96 SSW 5 7 29.89 1012 6 10 0.00 0.00
2:27 am 02:27 Mostly Cloudy with Mist and Fog 38 3.3 36 2.2 93 93 SW 5 7 29.91 1013 3 5 0.00 0.00
2:43 am 02:43 Mostly Clear with Mist and Fog 38 3.3 37 2.8 97 97 SSW 5 7 29.91 1013 5 8 0.00 0.00
2:53 am 02:53 Mostly Clear with Mist and Fog 38 3.3 37 2.8 97 97 SSW 5 7 29.89 1012 5 8 0.00 0.00
3:53 am 03:53 Mostly Clear with Mist and Fog 38 3.3 36 2.2 93 93 SW 9 15 29.90 1013 6 10 0.00 0.00
4:53 am 04:53 Mostly Clear 39 3.9 37 2.8 93 93 WSW 12 19 29.95 1014 10 16 0.00 0.00
5:53 am 05:53 Mostly Clear 37 2.8 35 1.7 93 93 W 8 13 29.99 1016 9 14 0.00 0.00
6:53 am 06:53 Sunny 38 3.3 33 0.6 83 83 WNW 12 19 30.04 1017 10 16 0.00 0.00
7:53 am 07:53 Sunny 40 4.4 32 0 73 73 WNW 10 17 30.08 1019 10 16 0.00 0.00
8:53 am 08:53 Mostly Sunny 41 5 32 0 70 70 W 15 24 30.14 1021 10 16 0.00 0.00
9:53 am 09:53 Mostly Sunny 43 6.1 32 0 65 65 W 15 24 30.16 1021 10 16 0.00 0.00
10:53 am 10:53 Mostly Sunny 47 8.3 32 0 56 56 WNW 14 22 30.19 1022 10 16 0.00 0.00
11:53 am 11:53 Mostly Sunny 49 9.4 32 0 52 52 WNW 10 17 30.22 1023 10 16 0.00 0.00
12:53 pm 12:53 Mostly Sunny 51 10.6 32 0 48 48 WNW 13 20 30.24 1024 10 16 0.00 0.00
1:53 pm 13:53 Mostly Sunny 52 11.1 32 0 47 47 WNW 12 19 30.25 1024 10 16 0.00 0.00
2:53 pm 14:53 Mostly Sunny 54 12.2 34 1.1 47 47 W 12 19 30.26 1025 10 16 0.00 0.00
3:53 pm 15:53 Mostly Sunny 56 13.3 33 0.6 42 42 NW 12 19 30.26 1025 10 16 0.00 0.00
4:53 pm 16:53 Mostly Sunny 55 12.8 32 0 42 42 NNW 7 11 30.26 1025 10 16 0.00 0.00
5:53 pm 17:53 Mostly Sunny 55 12.8 30 -1.1 38 38 VRB 3 6 30.27 1025 10 16 0.00 0.00
6:53 pm 18:53 Mostly Sunny 56 13.3 30 -1.1 37 37 Calm 30.27 1025 10 16 0.00 0.00
7:53 pm 19:53 Partly Cloudy 53 11.7 30 -1.1 41 41 ENE 3 6 30.27 1025 10 16 0.00 0.00
8:53 pm 20:53 Mostly Clear 52 11.1 30 -1.1 43 43 E 6 9 30.28 1026 10 16 0.00 0.00
9:53 pm 21:53 Mostly Clear 50 10 31 -0.6 48 48 E 7 11 30.30 1026 10 16 0.00 0.00
10:53 pm 22:53 Mostly Clear 48 8.9 31 -0.6 52 52 E 8 13 30.31 1026 10 16 0.00 0.00
11:53 pm 23:53 Mostly Clear 48 8.9 32 0 54 54 ESE 9 15 30.32 1027 10 16 0.00 0.00

Powered by AerisWeather